sat.trackr.live / text

‹ back to catalog

APSTAR-6D

NORAD 45863 · 2020-045A

PAYLOAD ACTIVE UNKNOWN

§ Identity

Operator
Country
PRC
Launch date
2020-07-09
Launch site
XICLF
Launch vehicle
Mass (kg)
RCS (m²)

Purposes: comms

External: N2YO · Heavens-Above · Gunter

§ Orbital elements

Epoch: 2026-09-19T20:41:38.647968Z

Period
1,436.08 min
Inclination
0.0405°
Eccentricity
0.0002400
Mean motion
1.00273112 rev/d
Perigee alt
35,776.1 km
Apogee alt
35,796.3 km
Semi-major
42,164.4 km
B*
0.0000e+0
RAAN
104.3155°
Arg perigee
342.4754°
Mean anomaly
356.4349°
Rev number
2,280

§ Raw data

APSTAR-6D1 45863U 20045A   26262.86225287 -.00000321  00000+0  00000+0 0  99902 45863   0.0405 104.3155 0002400 342.4754 356.4349  1.00273112 22804

JSON: /api/v1/satellites/45863 · /tle

For live sub-satellite position, see the globe view (requires WebGL).

§ Visibility from observer

Set your observer location to see the next 7 days of passes ≥ 10°. The values pass through the URL so the page stays shareable.

No JS? Fill the form by hand. The geolocation button needs JavaScript.